TimeCST,TemperatureF,Dew PointF,Humidity,Sea Level PressureIn,VisibilityMPH,Wind Direction,Wind SpeedMPH,Gust SpeedMPH,PrecipitationIn,Events,Conditions,WindDirDegrees,DateUTC
12:53 AM,17.1,9.0,71,30.16,10.0,SSW,6.9,-,N/A,,Mostly Cloudy,210,2013-01-03 06:53:00
2:53 AM,21.0,12.9,71,30.16,10.0,SW,11.5,-,N/A,,Overcast,220,2013-01-03 08:53:00
3:53 AM,21.0,14.0,74,30.15,10.0,SW,11.5,-,N/A,,Overcast,230,2013-01-03 09:53:00
4:04 AM,21.2,15.8,80,30.11,10.0,SW,8.1,-,N/A,,Overcast,220,2013-01-03 10:04:00
4:41 AM,21.2,15.8,80,30.11,9.0,SW,10.4,-,N/A,,Overcast,230,2013-01-03 10:41:00
4:53 AM,21.9,16.0,78,30.15,9.0,SW,10.4,-,N/A,,Overcast,230,2013-01-03 10:53:00
5:53 AM,21.0,16.0,81,30.16,8.0,SW,9.2,-,N/A,,Mostly Cloudy,230,2013-01-03 11:53:00
6:22 AM,21.2,17.6,86,30.13,8.0,SW,10.4,-,N/A,,Overcast,230,2013-01-03 12:22:00
6:53 AM,23.0,18.0,81,30.17,8.0,SW,12.7,-,N/A,,Overcast,230,2013-01-03 12:53:00
7:02 AM,23.0,17.6,80,30.13,8.0,SW,9.2,-,N/A,,Overcast,230,2013-01-03 13:02:00
7:53 AM,24.1,19.0,81,30.18,6.0,WSW,9.2,-,N/A,,Haze,240,2013-01-03 13:53:00
8:10 AM,24.8,19.4,80,30.13,6.0,SW,10.4,-,N/A,,Overcast,230,2013-01-03 14:10:00
8:53 AM,26.1,21.9,84,30.18,5.0,WSW,10.4,-,N/A,,Overcast,250,2013-01-03 14:53:00
9:11 AM,26.6,21.2,80,30.15,6.0,WSW,8.1,-,N/A,,Haze,240,2013-01-03 15:11:00
9:53 AM,28.9,24.1,82,30.20,6.0,WSW,10.4,-,N/A,,Haze,250,2013-01-03 15:53:00
10:10 AM,28.4,24.8,86,30.17,5.0,West,10.4,-,N/A,,Haze,260,2013-01-03 16:10:00
10:53 AM,30.0,21.9,72,30.20,10.0,West,15.0,-,N/A,,Overcast,270,2013-01-03 16:53:00
11:22 AM,30.2,21.2,69,30.16,10.0,West,12.7,-,N/A,,Overcast,260,2013-01-03 17:22:00
11:53 AM,30.0,21.0,69,30.19,10.0,West,13.8,20.7,N/A,,Overcast,270,2013-01-03 17:53:00
12:53 PM,30.0,21.9,72,30.19,10.0,West,9.2,-,N/A,,Overcast,280,2013-01-03 18:53:00
1:15 PM,30.2,21.2,69,30.15,10.0,West,15.0,18.4,N/A,,Overcast,280,2013-01-03 19:15:00
1:53 PM,30.0,19.9,66,30.20,10.0,West,18.4,-,N/A,,Overcast,280,2013-01-03 19:53:00
2:53 PM,30.0,19.9,66,30.22,10.0,WNW,15.0,20.7,N/A,,Overcast,290,2013-01-03 20:53:00
3:53 PM,28.9,19.0,67,30.23,10.0,WNW,10.4,-,N/A,,Overcast,290,2013-01-03 21:53:00
4:53 PM,28.9,18.0,64,30.25,10.0,West,13.8,-,N/A,,Overcast,270,2013-01-03 22:53:00
5:53 PM,28.0,18.0,66,30.26,10.0,West,8.1,-,N/A,,Overcast,260,2013-01-03 23:53:00
6:53 PM,27.0,17.1,66,30.28,10.0,West,10.4,-,N/A,,Overcast,280,2013-01-04 00:53:00
7:53 PM,25.0,17.1,72,30.28,10.0,WSW,8.1,-,N/A,,Mostly Cloudy,250,2013-01-04 01:53:00
8:53 PM,24.1,17.1,75,30.28,10.0,WSW,9.2,-,N/A,,Scattered Clouds,250,2013-01-04 02:53:00
9:53 PM,24.1,18.0,77,30.28,10.0,West,12.7,-,N/A,,Overcast,260,2013-01-04 03:53:00
10:53 PM,21.9,17.1,82,30.28,10.0,West,12.7,-,N/A,,Scattered Clouds,260,2013-01-04 04:53:00
11:53 PM,19.9,16.0,85,30.28,9.0,WSW,10.4,-,N/A,,Clear,250,2013-01-04 05:53:00